Weather History for Cape Girardeau, MO

Change the Weather History Date:

Sunday, June 16, 2013

  Actual Average Record
Temperature  
Mean Temperature 80 °F 76 °F  
Max Temperature 88 °F 87 °F 95 °F (1973)
Min Temperature 71 °F 65 °F 51 °F (1969)
Degree Days  
Heating Degree Days 0 0  
Month to date heating degree days 0 1  
Since 1 June heating degree days 0 1  
Since 1 July heating degree days 4359 4387  
Cooling Degree Days 15 11  
Month to date cooling degree days 131 140  
Year to date cooling degree days 302 292  
Since 1 June cooling degree days 131 140  
Growing Degree Days 29 (Base 50)    
Moisture  
Dew Point 68 °F    
Average Humidity 72    
Maximum Humidity 93    
Minimum Humidity 50    
Precipitation  
Precipitation 0.00 in 0.12 in 0.87 in (1971)
Month to date precipitation 3.73 1.97  
Year to date precipitation 19.90 23.07  
Sea Level Pressure  
Sea Level Pressure 29.97 in    
Wind  
Wind Speed 5 mph (SSW)    
Max Wind Speed 16 mph    
Max Gust Speed 20 mph    
Visibility 10 miles    
Events      
T = Trace of Precipitation, MM = Missing Value Source: NWS Daily Summary

Daily Weather History Graph

Daily Weather History Graph

Search for Another Location

Airport:

Trip Planner

Search our weather history database for the weather conditions in past years. The results will help you decide how hot, cold, wet, or windy it might be!

Date:

Astronomy

Jun. 16, 2013 Rise Set
Actual Time 5:37 AM CDT 8:20 PM CDT
Civil Twilight 5:06 AM CDT 8:51 PM CDT
Nautical Twilight 4:27 AM CDT 9:30 PM CDT
Astronomical Twilight 3:44 AM CDT 10:13 PM CDT
Moon 1:04 PM CDT (6/16) 12:34 AM CDT (6/16)
Length of Visible Light 15h 45m
Length of Day
14h 43m
Waxing Crescent, 50% of the Moon is Illuminated
Jun 16
Waxing Crescent
Jun 16
First Quarter
Jun 23
Full
Jun 29
Last Quarter
Jul 8
New

Hourly Weather History & Observations

Time (CDT) Temp. Heat Index Dew Point Humidity Pressure Visibility Wind Dir Wind Speed Gust Speed Precip Events Conditions
12:53 AM 73.0 °F - 69.1 °F 87% 30.01 in 10.0 mi SSE 3.5 mph - N/A   Clear
1:53 AM 73.0 °F - 69.1 °F 87% 30.00 in 10.0 mi WNW 3.5 mph - N/A   Clear
2:53 AM 75.0 °F - 66.9 °F 76% 29.98 in 10.0 mi NNE 6.9 mph - N/A   Clear
3:53 AM 73.9 °F - 68.0 °F 82% 29.98 in 10.0 mi ENE 5.8 mph - N/A   Clear
4:53 AM 71.1 °F - 68.0 °F 90% 29.98 in 10.0 mi Calm Calm - N/A   Clear
5:53 AM 72.0 °F - 68.0 °F 87% 29.99 in 10.0 mi Calm Calm - N/A   Clear
6:53 AM 73.0 °F - 66.9 °F 81% 30.01 in 10.0 mi ENE 3.5 mph - N/A   Clear
7:53 AM 75.0 °F - 66.9 °F 76% 30.01 in 10.0 mi ESE 4.6 mph - N/A   Clear
8:53 AM 75.9 °F - 68.0 °F 76% 30.01 in 10.0 mi SSE 5.8 mph - N/A   Clear
9:53 AM 82.0 °F 84.9 °F 68.0 °F 62% 29.99 in 10.0 mi South 9.2 mph - N/A   Clear
10:53 AM 82.9 °F 85.4 °F 66.9 °F 58% 29.99 in 10.0 mi SW 9.2 mph - N/A   Clear
11:53 AM 86.0 °F 88.2 °F 66.0 °F 51% 29.98 in 10.0 mi SSW 12.7 mph - N/A   Clear
12:53 PM 84.9 °F 88.2 °F 68.0 °F 57% 29.98 in 10.0 mi WSW 6.9 mph 17.3 mph N/A   Partly Cloudy
1:53 PM 87.1 °F 89.9 °F 66.9 °F 51% 29.97 in 10.0 mi West 9.2 mph - N/A   Scattered Clouds
2:53 PM 86.0 °F 89.4 °F 68.0 °F 55% 29.96 in 10.0 mi West 6.9 mph - N/A   Scattered Clouds
3:53 PM 86.0 °F 89.4 °F 68.0 °F 55% 29.94 in 10.0 mi Variable 4.6 mph - N/A   Partly Cloudy
4:53 PM 86.0 °F 88.8 °F 66.9 °F 53% 29.94 in 10.0 mi WSW 4.6 mph - N/A   Partly Cloudy
5:53 PM 84.9 °F 87.6 °F 66.9 °F 55% 29.93 in 10.0 mi SW 5.8 mph - N/A   Clear
6:53 PM 84.9 °F 88.2 °F 68.0 °F 57% 29.93 in 10.0 mi West 5.8 mph - N/A   Clear
7:53 PM 81.0 °F 85.2 °F 72.0 °F 74% 29.93 in 10.0 mi Calm Calm - N/A   Clear
8:53 PM 75.0 °F - 71.1 °F 87% 29.93 in 10.0 mi South 3.5 mph - N/A   Clear
9:53 PM 72.0 °F - 69.1 °F 91% 29.94 in 10.0 mi Calm Calm - N/A   Clear
10:53 PM 73.9 °F - 70.0 °F 87% 29.94 in 10.0 mi Calm Calm - N/A   Clear
11:53 PM 72.0 °F - 69.1 °F 91% 29.93 in 10.0 mi Calm Calm - N/A   Clear